SVA1079 OERK-OEJN

Flight info

Callsign SVA1079
Flight time 1h 27m
Altitude 38000
Route DURMA1L DURMA G782 VEMEM VEMEM2L
Aircraft B77W/H-SDE1E2E3FGHIJ2J3J4J5M1RWXY/LB1D1

Departure

Time 2026-05-06 10:06
Airport King Khalid International Airport (OERK)

Arrival

Time 2026-05-06 11:33
Airport King Abdulaziz International Airport (OEJN)
Time Latitude Longitude Altitude Speed Heading
2026-05-06 09:16 24.95709 46.70709 2048 ft 0 kts 239°
2026-05-06 09:19 24.95709 46.70710 2048 ft 0 kts 239°
2026-05-06 09:31 24.95710 46.70710 2048 ft 0 kts 239°
2026-05-06 09:57 24.95711 46.70712 2048 ft 1 kts 239°
2026-05-06 09:57 24.95719 46.70727 2048 ft 2 kts 239°
2026-05-06 09:57 24.95727 46.70742 2051 ft 2 kts 239°
2026-05-06 09:58 24.95735 46.70758 2050 ft 2 kts 235°
2026-05-06 09:58 24.95748 46.70767 2048 ft 2 kts 170°
2026-05-06 09:58 24.95759 46.70763 2048 ft 0 kts 154°
2026-05-06 10:00 24.95739 46.70774 2050 ft 8 kts 151°
2026-05-06 10:00 24.95660 46.70823 2052 ft 17 kts 150°
2026-05-06 10:00 24.95547 46.70894 2052 ft 21 kts 149°
2026-05-06 10:01 24.95411 46.70980 2052 ft 21 kts 151°
2026-05-06 10:01 24.95343 46.71046 2052 ft 14 kts 107°
2026-05-06 10:01 24.95376 46.71157 2052 ft 18 kts 60°
2026-05-06 10:01 24.95431 46.71262 2052 ft 11 kts 59°
2026-05-06 10:02 24.95459 46.71357 2050 ft 16 kts 104°
2026-05-06 10:02 24.95368 46.71441 2049 ft 19 kts 149°
2026-05-06 10:02 24.95238 46.71525 2049 ft 24 kts 150°
2026-05-06 10:02 24.95136 46.71589 2050 ft 27 kts 150°
2026-05-06 10:03 24.94999 46.71676 2047 ft 13 kts 150°
2026-05-06 10:03 24.94903 46.71735 2053 ft 18 kts 150°
2026-05-06 10:03 24.94731 46.71844 2049 ft 25 kts 150°
2026-05-06 10:03 24.94587 46.71934 2053 ft 24 kts 150°
2026-05-06 10:04 24.94486 46.71997 2050 ft 25 kts 150°
2026-05-06 10:04 24.94358 46.72084 2049 ft 16 kts 134°
2026-05-06 10:04 24.94360 46.72163 2047 ft 13 kts 64°
2026-05-06 10:04 24.94460 46.72219 2046 ft 16 kts
2026-05-06 10:05 24.94521 46.72199 2047 ft 0 kts 331°
2026-05-06 10:05 24.94538 46.72189 2046 ft 5 kts 331°
2026-05-06 10:05 24.94585 46.72161 2045 ft 10 kts 332°
2026-05-06 10:05 24.94762 46.72050 2048 ft 57 kts 330°
2026-05-06 10:06 24.95365 46.71669 2045 ft 140 kts 330°
2026-05-06 10:06 24.96349 46.71046 2278 ft 178 kts 332°
2026-05-06 10:06 24.97475 46.70272 2775 ft 201 kts 330°
2026-05-06 10:06 24.98664 46.69411 3498 ft 208 kts 333°
2026-05-06 10:07 24.99981 46.68627 4089 ft 224 kts 335°
2026-05-06 10:07 25.01428 46.67773 4603 ft 249 kts 333°
2026-05-06 10:07 25.03020 46.66801 5193 ft 273 kts 330°
2026-05-06 10:07 25.04669 46.65772 6124 ft 274 kts 328°
2026-05-06 10:08 25.06308 46.64647 7017 ft 280 kts 323°
2026-05-06 10:08 25.07942 46.63431 7876 ft 286 kts 322°
2026-05-06 10:08 25.09601 46.62182 8760 ft 291 kts 323°
2026-05-06 10:08 25.11286 46.60915 9697 ft 294 kts 323°
2026-05-06 10:09 25.12993 46.59634 10509 ft 299 kts 323°
2026-05-06 10:09 25.14723 46.58339 11139 ft 311 kts 323°
2026-05-06 10:09 25.16490 46.56894 11518 ft 322 kts 311°
2026-05-06 10:09 25.17642 46.54732 11793 ft 336 kts 282°
2026-05-06 10:10 25.17737 46.52123 12091 ft 350 kts 256°
2026-05-06 10:10 25.16713 46.49643 12393 ft 365 kts 231°
2026-05-06 10:10 25.14855 46.47680 12766 ft 376 kts 217°
2026-05-06 10:10 25.12727 46.45952 13454 ft 380 kts 215°
2026-05-06 10:11 25.10615 46.44247 14127 ft 383 kts 217°
2026-05-06 10:11 25.08491 46.42415 14709 ft 387 kts 219°
2026-05-06 10:11 25.06412 46.40489 15218 ft 393 kts 221°
2026-05-06 10:11 25.04351 46.38471 15726 ft 398 kts 223°
2026-05-06 10:12 25.02322 46.36411 16240 ft 401 kts 223°
2026-05-06 10:12 25.00278 46.34294 16748 ft 404 kts 224°
2026-05-06 10:12 24.98233 46.32154 17260 ft 406 kts 224°
2026-05-06 10:12 24.96178 46.29995 17769 ft 408 kts 225°
2026-05-06 10:13 24.94120 46.27830 18235 ft 410 kts 225°
2026-05-06 10:13 24.92071 46.25677 18609 ft 412 kts 225°
2026-05-06 10:13 24.89989 46.23491 19000 ft 414 kts 225°
2026-05-06 10:13 24.87899 46.21300 19378 ft 415 kts 224°
2026-05-06 10:14 24.85801 46.19103 19739 ft 417 kts 224°
2026-05-06 10:14 24.83694 46.16897 20076 ft 418 kts 224°
2026-05-06 10:14 24.81577 46.14682 20412 ft 419 kts 224°
2026-05-06 10:14 24.79462 46.12471 20717 ft 421 kts 224°
2026-05-06 10:15 24.77330 46.10243 21017 ft 422 kts 224°
2026-05-06 10:15 24.75198 46.08018 21322 ft 423 kts 224°
2026-05-06 10:15 24.73054 46.05780 21633 ft 424 kts 224°
2026-05-06 10:15 24.70940 46.03575 21915 ft 424 kts 224°
2026-05-06 10:16 24.68784 46.01325 22212 ft 425 kts 224°
2026-05-06 10:16 24.66640 45.99090 22502 ft 425 kts 224°
2026-05-06 10:16 24.64515 45.96876 22791 ft 425 kts 224°
2026-05-06 10:16 24.62367 45.94639 23069 ft 425 kts 224°
2026-05-06 10:17 24.60223 45.92407 23384 ft 424 kts 224°
2026-05-06 10:17 24.58082 45.90180 23644 ft 424 kts 224°
2026-05-06 10:17 24.55940 45.87952 23891 ft 423 kts 224°
2026-05-06 10:17 24.53777 45.85741 24126 ft 422 kts 222°
2026-05-06 10:18 24.51612 45.83622 24356 ft 422 kts 223°
2026-05-06 10:18 24.49466 45.81424 24607 ft 421 kts 224°
2026-05-06 10:18 24.47365 45.79173 24848 ft 420 kts 225°
2026-05-06 10:18 24.45366 45.76839 25103 ft 418 kts 232°
2026-05-06 10:19 24.43818 45.74145 25359 ft 418 kts 243°
2026-05-06 10:19 24.42719 45.71203 25613 ft 415 kts 247°
2026-05-06 10:19 24.41588 45.68290 25876 ft 413 kts 244°
2026-05-06 10:19 24.40339 45.65452 26140 ft 412 kts 243°
2026-05-06 10:20 24.39051 45.62644 26401 ft 411 kts 242°
2026-05-06 10:20 24.37767 45.59855 26667 ft 409 kts 242°
2026-05-06 10:20 24.36489 45.57059 26934 ft 408 kts 243°
2026-05-06 10:20 24.35242 45.54305 27212 ft 407 kts 243°
2026-05-06 10:21 24.33991 45.51525 27478 ft 406 kts 243°
2026-05-06 10:21 24.32748 45.48748 27756 ft 404 kts 243°
2026-05-06 10:21 24.31511 45.45983 28173 ft 396 kts 243°
2026-05-06 10:21 24.30312 45.43301 28806 ft 388 kts 243°
2026-05-06 10:22 24.29154 45.40711 29372 ft 380 kts 243°
2026-05-06 10:22 24.27998 45.38128 29895 ft 373 kts 243°
2026-05-06 10:22 24.25677 45.32949 29969 ft 383 kts 243°
2026-05-06 10:23 24.23298 45.27647 29972 ft 392 kts 243°
2026-05-06 10:23 24.20860 45.22218 29972 ft 400 kts 243°
2026-05-06 10:24 24.18390 45.16723 29980 ft 407 kts 243°
2026-05-06 10:24 24.15864 45.11113 29977 ft 413 kts 243°
2026-05-06 10:25 24.13309 45.05433 29983 ft 417 kts 243°
2026-05-06 10:25 24.10745 44.99735 30115 ft 418 kts 243°
2026-05-06 10:26 24.09462 44.96887 30394 ft 413 kts 243°
2026-05-06 10:26 24.08196 44.94077 30656 ft 408 kts 244°
2026-05-06 10:26 24.06962 44.91342 30921 ft 404 kts 244°
2026-05-06 10:26 24.05724 44.88596 31186 ft 399 kts 244°
2026-05-06 10:27 24.04495 44.85875 31456 ft 395 kts 244°
2026-05-06 10:27 24.03283 44.83191 31746 ft 391 kts 244°
2026-05-06 10:27 24.02097 44.80567 32022 ft 387 kts 244°
2026-05-06 10:27 24.00908 44.77938 32298 ft 383 kts 244°
2026-05-06 10:28 23.99731 44.75335 32563 ft 379 kts 244°
2026-05-06 10:28 23.98565 44.72760 32869 ft 375 kts 244°
2026-05-06 10:28 23.97413 44.70215 33160 ft 371 kts 244°
2026-05-06 10:28 23.96269 44.67691 33452 ft 367 kts 244°
2026-05-06 10:29 23.95143 44.65206 33744 ft 363 kts 244°
2026-05-06 10:29 23.94035 44.62765 33883 ft 363 kts 244°
2026-05-06 10:29 23.92051 44.57666 33971 ft 367 kts 255°
2026-05-06 10:30 23.90999 44.52167 33975 ft 372 kts 256°
2026-05-06 10:30 23.89834 44.46602 33977 ft 377 kts 255°
2026-05-06 10:31 23.88637 44.41010 33976 ft 382 kts 255°
2026-05-06 10:31 23.87415 44.35310 33979 ft 387 kts 255°
2026-05-06 10:32 23.86186 44.29581 33971 ft 391 kts 255°
2026-05-06 10:32 23.84937 44.23770 33965 ft 394 kts 255°
2026-05-06 10:33 23.83676 44.17905 33962 ft 397 kts 255°
2026-05-06 10:33 23.82404 44.12006 33953 ft 400 kts 255°
2026-05-06 10:34 23.81130 44.06108 33955 ft 401 kts 255°
2026-05-06 10:34 23.79838 44.00139 33956 ft 403 kts 255°
2026-05-06 10:35 23.78550 43.94196 33964 ft 405 kts 255°
2026-05-06 10:35 23.77902 43.91209 34247 ft 397 kts 255°
2026-05-06 10:35 23.77283 43.88361 34808 ft 383 kts 255°
2026-05-06 10:36 23.76674 43.85572 35342 ft 370 kts 255°
2026-05-06 10:36 23.76086 43.82886 35892 ft 357 kts 255°
2026-05-06 10:36 23.75517 43.80290 36460 ft 343 kts 255°
2026-05-06 10:36 23.74972 43.77809 37029 ft 329 kts 255°
2026-05-06 10:37 23.74451 43.75433 37610 ft 313 kts 254°
2026-05-06 10:37 23.73958 43.73192 37979 ft 304 kts 254°
2026-05-06 10:37 23.72963 43.68688 37970 ft 304 kts 254°
2026-05-06 10:38 23.71972 43.64201 37971 ft 303 kts 254°
2026-05-06 10:38 23.70994 43.59774 37978 ft 301 kts 254°
2026-05-06 10:39 23.70005 43.55307 38012 ft 308 kts 254°
2026-05-06 10:39 23.69491 43.52993 38005 ft 319 kts 254°
2026-05-06 10:39 23.68961 43.50606 38005 ft 329 kts 254°
2026-05-06 10:40 23.68412 43.48134 38009 ft 340 kts 254°
2026-05-06 10:40 23.67846 43.45587 38013 ft 350 kts 254°
2026-05-06 10:40 23.67263 43.42962 38008 ft 361 kts 254°
2026-05-06 10:40 23.66661 43.40254 38006 ft 371 kts 255°
2026-05-06 10:41 23.65415 43.34654 38013 ft 391 kts 255°
2026-05-06 10:41 23.64100 43.28754 38011 ft 408 kts 255°
2026-05-06 10:42 23.62740 43.22660 38005 ft 422 kts 255°
2026-05-06 10:42 23.61328 43.16345 38013 ft 433 kts 255°
2026-05-06 10:43 23.59886 43.09913 38011 ft 439 kts 255°
2026-05-06 10:44 23.57702 43.00188 38003 ft 442 kts 254°
2026-05-06 10:44 23.56230 42.93657 38007 ft 443 kts 254°
2026-05-06 10:45 23.54759 42.87146 38008 ft 442 kts 254°
2026-05-06 10:45 23.53297 42.80680 38009 ft 441 kts 254°
2026-05-06 10:46 23.51828 42.74204 38009 ft 439 kts 254°
2026-05-06 10:46 23.50363 42.67747 38003 ft 437 kts 254°
2026-05-06 10:47 23.48905 42.61325 38016 ft 436 kts 253°
2026-05-06 10:47 23.47445 42.54907 38027 ft 436 kts 253°
2026-05-06 10:48 23.45992 42.48532 38017 ft 436 kts 253°
2026-05-06 10:48 23.44522 42.42096 38035 ft 437 kts 253°
2026-05-06 10:49 23.43049 42.35662 38031 ft 438 kts 253°
2026-05-06 10:49 23.41581 42.29258 38020 ft 438 kts 253°
2026-05-06 10:50 23.40346 42.23884 38021 ft 439 kts 253°
2026-05-06 10:50 23.39074 42.18355 38029 ft 439 kts 253°
2026-05-06 10:51 23.38353 42.15228 38026 ft 439 kts 253°
2026-05-06 10:51 23.37993 42.13664 38016 ft 439 kts 253°
2026-05-06 10:52 23.37180 42.10141 38033 ft 438 kts 253°
2026-05-06 10:52 23.35691 42.03693 38031 ft 438 kts 253°
2026-05-06 10:53 23.34201 41.97265 38031 ft 438 kts 253°
2026-05-06 10:53 23.32709 41.90832 38030 ft 437 kts 253°
2026-05-06 10:54 23.31227 41.84457 38030 ft 437 kts 253°
2026-05-06 10:54 23.29732 41.78037 38023 ft 437 kts 253°
2026-05-06 10:55 23.28092 41.71686 38018 ft 434 kts 246°
2026-05-06 10:55 23.24957 41.66149 38027 ft 432 kts 233°
2026-05-06 10:56 23.21554 41.60744 38030 ft 433 kts 238°
2026-05-06 10:56 23.18342 41.55170 38032 ft 434 kts 238°
2026-05-06 10:57 23.15130 41.49641 38029 ft 435 kts 238°
2026-05-06 10:57 23.11853 41.44083 38029 ft 436 kts 237°
2026-05-06 10:58 23.08578 41.38561 38031 ft 437 kts 237°
2026-05-06 10:58 23.05281 41.33009 38030 ft 437 kts 237°
2026-05-06 10:59 23.01980 41.27455 38027 ft 437 kts 237°
2026-05-06 10:59 22.98682 41.21909 38027 ft 437 kts 237°
2026-05-06 11:00 22.95385 41.16371 38025 ft 436 kts 237°
2026-05-06 11:00 22.92109 41.10875 38030 ft 436 kts 237°
2026-05-06 11:01 22.88809 41.05342 38022 ft 436 kts 237°
2026-05-06 11:01 22.85507 40.99813 38020 ft 436 kts 237°
2026-05-06 11:02 22.82218 40.94326 38019 ft 436 kts 237°
2026-05-06 11:02 22.78900 40.88801 38021 ft 437 kts 238°
2026-05-06 11:03 22.75593 40.83295 38021 ft 439 kts 238°
2026-05-06 11:03 22.72244 40.77723 38011 ft 440 kts 238°
2026-05-06 11:04 22.68896 40.72157 38019 ft 441 kts 238°
2026-05-06 11:04 22.65558 40.66618 38031 ft 441 kts 238°
2026-05-06 11:05 22.62207 40.61062 38026 ft 442 kts 238°
2026-05-06 11:05 22.58834 40.55474 38020 ft 442 kts 238°
2026-05-06 11:06 22.55478 40.49920 38030 ft 442 kts 238°
2026-05-06 11:06 22.52106 40.44346 38032 ft 442 kts 238°
2026-05-06 11:07 22.48746 40.38797 38038 ft 443 kts 238°
2026-05-06 11:07 22.45368 40.33226 38040 ft 443 kts 238°
2026-05-06 11:08 22.41977 40.27637 38048 ft 442 kts 238°
2026-05-06 11:08 22.38617 40.22105 38037 ft 442 kts 238°
2026-05-06 11:09 22.35236 40.16546 38034 ft 442 kts 238°
2026-05-06 11:09 22.31854 40.10989 38019 ft 442 kts 238°
2026-05-06 11:10 22.28512 40.05503 37993 ft 433 kts 238°
2026-05-06 11:10 22.26863 40.02800 37782 ft 428 kts 238°
2026-05-06 11:10 22.25227 40.00117 36931 ft 429 kts 238°
2026-05-06 11:10 22.23581 39.97420 36102 ft 428 kts 238°
2026-05-06 11:11 22.21942 39.94735 35248 ft 428 kts 238°
2026-05-06 11:11 22.20304 39.92051 34508 ft 426 kts 238°
2026-05-06 11:11 22.18670 39.89374 33697 ft 426 kts 238°
2026-05-06 11:11 22.17075 39.86765 32824 ft 414 kts 238°
2026-05-06 11:12 22.15512 39.84213 31994 ft 401 kts 238°
2026-05-06 11:12 22.13997 39.81741 31159 ft 389 kts 238°
2026-05-06 11:12 22.12522 39.79332 30363 ft 379 kts 238°
2026-05-06 11:12 22.11085 39.76987 29491 ft 371 kts 238°
2026-05-06 11:13 22.09666 39.74670 28622 ft 372 kts 238°
2026-05-06 11:13 22.08223 39.72313 27748 ft 379 kts 237°
2026-05-06 11:13 22.06755 39.69918 26918 ft 384 kts 237°
2026-05-06 11:13 22.05277 39.67507 26113 ft 388 kts 237°
2026-05-06 11:14 22.03793 39.65089 25311 ft 391 kts 237°
2026-05-06 11:14 22.02285 39.62633 24556 ft 395 kts 237°
2026-05-06 11:14 22.00758 39.60147 23798 ft 397 kts 237°
2026-05-06 11:14 21.99229 39.57660 22971 ft 400 kts 236°
2026-05-06 11:15 21.97797 39.55328 22166 ft 402 kts 236°
2026-05-06 11:15 21.96264 39.52835 21323 ft 403 kts 236°
2026-05-06 11:15 21.94713 39.50309 20489 ft 401 kts 237°
2026-05-06 11:15 21.93602 39.47584 19649 ft 402 kts 256°
2026-05-06 11:16 21.93563 39.44596 18887 ft 410 kts 278°
2026-05-06 11:16 21.94633 39.41726 18115 ft 420 kts 300°
2026-05-06 11:16 21.96633 39.39504 17215 ft 412 kts 323°
2026-05-06 11:16 21.99232 39.38302 16357 ft 405 kts 346°
2026-05-06 11:17 22.02009 39.38291 15553 ft 398 kts 11°
2026-05-06 11:17 22.04460 39.39501 15170 ft 377 kts 39°
2026-05-06 11:17 22.06102 39.41579 15001 ft 369 kts 63°
2026-05-06 11:17 22.06965 39.44145 14901 ft 363 kts 83°
2026-05-06 11:18 22.06952 39.46838 14901 ft 358 kts 108°
2026-05-06 11:18 22.05905 39.49213 14723 ft 349 kts 132°
2026-05-06 11:18 22.04067 39.50857 14132 ft 344 kts 157°
2026-05-06 11:18 22.01769 39.51430 13427 ft 342 kts 184°
2026-05-06 11:19 21.99473 39.50821 12692 ft 341 kts 205°
2026-05-06 11:19 21.97348 39.49651 11972 ft 344 kts 208°
2026-05-06 11:19 21.95190 39.48490 11246 ft 348 kts 206°
2026-05-06 11:19 21.92969 39.47415 10557 ft 349 kts 203°
2026-05-06 11:20 21.90782 39.46460 9835 ft 337 kts 201°
2026-05-06 11:20 21.88617 39.45588 9093 ft 327 kts 200°
2026-05-06 11:20 21.86503 39.44779 8439 ft 316 kts 200°
2026-05-06 11:20 21.84457 39.44018 7837 ft 307 kts 199°
2026-05-06 11:21 21.82456 39.43284 7238 ft 301 kts 199°
2026-05-06 11:21 21.80481 39.42565 6655 ft 300 kts 199°
2026-05-06 11:21 21.78462 39.41833 6089 ft 311 kts 199°
2026-05-06 11:21 21.76403 39.41090 5506 ft 307 kts 199°
2026-05-06 11:22 21.74427 39.40378 4881 ft 299 kts 199°
2026-05-06 11:22 21.72483 39.39672 4343 ft 291 kts 199°
2026-05-06 11:22 21.70595 39.38993 4068 ft 283 kts 199°
2026-05-06 11:22 21.68667 39.38295 3667 ft 297 kts 200°
2026-05-06 11:23 21.66692 39.37581 3259 ft 299 kts 200°
2026-05-06 11:23 21.64770 39.36891 3009 ft 279 kts 200°
2026-05-06 11:23 21.63015 39.36261 3010 ft 268 kts 200°
2026-05-06 11:23 21.61228 39.35613 2990 ft 267 kts 200°
2026-05-06 11:24 21.59515 39.34995 2989 ft 252 kts 200°
2026-05-06 11:24 21.57902 39.34414 2957 ft 237 kts 200°
2026-05-06 11:24 21.56367 39.33862 2980 ft 229 kts 200°
2026-05-06 11:24 21.54851 39.33316 3023 ft 230 kts 200°
2026-05-06 11:25 21.53261 39.33047 2994 ft 236 kts 171°
2026-05-06 11:25 21.51712 39.33565 3003 ft 232 kts 158°
2026-05-06 11:25 21.50204 39.34172 3002 ft 230 kts 159°
2026-05-06 11:25 21.48726 39.34796 2989 ft 224 kts 152°
2026-05-06 11:26 21.47295 39.35383 2993 ft 224 kts 174°
2026-05-06 11:26 21.45779 39.35109 3009 ft 227 kts 208°
2026-05-06 11:26 21.44662 39.34039 2998 ft 208 kts 243°
2026-05-06 11:26 21.44121 39.32674 2986 ft 193 kts 253°
2026-05-06 11:27 21.43667 39.31335 2977 ft 187 kts 256°
2026-05-06 11:27 21.43657 39.30007 3012 ft 177 kts 295°
2026-05-06 11:27 21.44352 39.28935 3012 ft 174 kts 314°
2026-05-06 11:27 21.45144 39.27952 3002 ft 173 kts 313°
2026-05-06 11:28 21.45927 39.26987 2989 ft 169 kts 314°
2026-05-06 11:28 21.46775 39.26180 2986 ft 157 kts 335°
2026-05-06 11:28 21.47745 39.25674 2977 ft 154 kts 336°
2026-05-06 11:28 21.48726 39.25201 3012 ft 162 kts 338°
2026-05-06 11:29 21.49815 39.24726 3006 ft 171 kts 340°
2026-05-06 11:29 21.50927 39.24268 2866 ft 171 kts 341°
2026-05-06 11:29 21.52040 39.23828 2534 ft 173 kts 341°
2026-05-06 11:29 21.53190 39.23372 2133 ft 179 kts 340°
2026-05-06 11:30 21.53968 39.23064 1890 ft 179 kts 340°
2026-05-06 11:30 21.55111 39.22612 1724 ft 170 kts 339°
2026-05-06 11:30 21.56165 39.22194 1686 ft 153 kts 339°
2026-05-06 11:30 21.57158 39.21803 1694 ft 155 kts 338°
2026-05-06 11:31 21.58185 39.21398 1696 ft 156 kts 338°
2026-05-06 11:31 21.59212 39.20991 1574 ft 160 kts 338°
2026-05-06 11:31 21.60212 39.20597 1366 ft 147 kts 337°
2026-05-06 11:31 21.61130 39.20232 1204 ft 145 kts 337°
2026-05-06 11:32 21.62172 39.19818 1006 ft 163 kts 339°
2026-05-06 11:32 21.63167 39.19428 804 ft 139 kts 339°
2026-05-06 11:32 21.64032 39.19085 657 ft 136 kts 338°
2026-05-06 11:32 21.64989 39.18699 590 ft 151 kts 337°
2026-05-06 11:33 21.65962 39.18291 327 ft 149 kts 339°
2026-05-06 11:33 21.66928 39.17940 84 ft 149 kts 336°
2026-05-06 11:33 21.67664 39.17642 49 ft 46 kts 340°
2026-05-06 11:33 21.67848 39.17571 49 ft 28 kts 341°
2026-05-06 11:34 21.68028 39.17500 47 ft 28 kts 339°
2026-05-06 11:34 21.68205 39.17421 45 ft 28 kts 330°
2026-05-06 11:34 21.68349 39.17288 42 ft 27 kts 310°
2026-05-06 11:34 21.68392 39.17234 40 ft 1 kts 311°
2026-05-06 11:35 21.68399 39.17226 40 ft 2 kts 311°
2026-05-06 11:35 21.68405 39.17218 40 ft 0 kts 311°
2026-05-06 11:35 21.68407 39.17216 40 ft 1 kts 311°
2026-05-06 11:35 21.68412 39.17209 40 ft 2 kts 311°
2026-05-06 11:36 21.68422 39.17197 40 ft 3 kts 311°
2026-05-06 11:36 21.68438 39.17178 40 ft 4 kts 311°
2026-05-06 11:38 21.68440 39.17175 40 ft 2 kts 311°
2026-05-06 11:38 21.68462 39.17146 39 ft 8 kts 309°
2026-05-06 11:39 21.68463 39.17097 39 ft 5 kts 215°
2026-05-06 11:39 21.68422 39.17111 39 ft 9 kts 154°
2026-05-06 11:39 21.68345 39.17152 39 ft 16 kts 154°
2026-05-06 11:39 21.68225 39.17196 39 ft 21 kts 163°
2026-05-06 11:40 21.68115 39.17235 39 ft 15 kts 161°
2026-05-06 11:40 21.68081 39.17248 40 ft 4 kts 160°
2026-05-06 11:40 21.68028 39.17252 39 ft 11 kts 197°
2026-05-06 11:40 21.67981 39.17192 38 ft 8 kts 246°
2026-05-06 11:41 21.67966 39.17154 38 ft 0 kts 246°
2026-05-06 11:41 21.67963 39.17149 38 ft 0 kts 246°
2026-05-06 11:43 21.67961 39.17143 38 ft 2 kts 246°
2026-05-06 11:43 21.67949 39.17108 38 ft 8 kts 249°
2026-05-06 11:43 21.67900 39.17056 38 ft 13 kts 196°
2026-05-06 11:44 21.67836 39.17129 38 ft 11 kts 81°
2026-05-06 11:44 21.67844 39.17160 38 ft 5 kts 73°
2026-05-06 11:44 21.67849 39.17178 38 ft 2 kts 73°
2026-05-06 11:44 21.67851 39.17186 38 ft 3 kts 77°
2026-05-06 11:45 21.67848 39.17220 38 ft 7 kts 97°
2026-05-06 11:45 21.67846 39.17236 38 ft 2 kts 105°
2026-05-06 11:45 21.67842 39.17243 38 ft 1 kts 109°
2026-05-06 11:45 21.67846 39.17254 39 ft 0 kts 67°
2026-05-06 11:46 21.67848 39.17259 39 ft 3 kts 67°
2026-05-06 11:46 21.67847 39.17312 39 ft 11 kts 115°
2026-05-06 11:46 21.67768 39.17371 40 ft 14 kts 158°
2026-05-06 11:47 21.67660 39.17417 40 ft 22 kts 159°
2026-05-06 11:47 21.67491 39.17486 40 ft 30 kts 163°
2026-05-06 11:47 21.67318 39.17551 40 ft 21 kts 161°
2026-05-06 11:47 21.67233 39.17524 39 ft 14 kts 233°
2026-05-06 11:48 21.67205 39.17461 38 ft 6 kts 249°
2026-05-06 11:48 21.67174 39.17396 38 ft 14 kts 232°
2026-05-06 11:48 21.67078 39.17306 38 ft 23 kts 213°
2026-05-06 11:48 21.66987 39.17264 37 ft 10 kts 197°
2026-05-06 11:49 21.66887 39.17263 37 ft 19 kts 165°
2026-05-06 11:49 21.66757 39.17312 37 ft 18 kts 160°
2026-05-06 11:49 21.66715 39.17328 37 ft 1 kts 168°
2026-05-06 11:49 21.66695 39.17311 37 ft 7 kts 236°
2026-05-06 11:50 21.66694 39.17267 37 ft 3 kts 255°
2026-05-06 11:50 21.66685 39.17238 37 ft 4 kts 251°
2026-05-06 11:50 21.66684 39.17237 37 ft 0 kts 251°